Weather History for Waukegan, IL

Change the Weather History Date:

Tuesday, March 5, 2013

  Actual Average Record
Temperature  
Mean Temperature 31 °F -  
Max Temperature 33 °F 40 °F 64 °F (2009)
Min Temperature 28 °F 24 °F 7 °F (2002)
Degree Days  
Heating Degree Days 34 33  
Month to date heating degree days 207 170  
Since 1 July heating degree days 4808 5116  
Cooling Degree Days 0 0  
Month to date cooling degree days 0 0  
Year to date cooling degree days 0 0  
Moisture  
Dew Point 27 °F    
Average Humidity 85    
Maximum Humidity 100    
Minimum Humidity 69    
Precipitation  
Precipitation 0.00 in 0.07 in 0.71 in (2004)
Month to date precipitation 0.01 0.31  
Year to date precipitation 2.17 3.36  
Sea Level Pressure  
Sea Level Pressure 29.91 in    
Wind  
Wind Speed 12 mph (NE)    
Max Wind Speed 21 mph    
Max Gust Speed 28 mph    
Visibility 4 miles    
Events Fog , Rain , Snow    
T = Trace of Precipitation, MM = Missing Value Source: NWS Daily Summary

Daily Weather History Graph

Daily Weather History Graph

Search for Another Location

Airport:

Trip Planner

Search our weather history database for the weather conditions in past years. The results will help you decide how hot, cold, wet, or windy it might be!

Date:

Astronomy

Mar. 05, 2013 Rise Set
Actual Time 6:19 AM CST 5:46 PM CST
Civil Twilight 5:51 AM CST 6:14 PM CST
Nautical Twilight 5:19 AM CST 6:47 PM CST
Astronomical Twilight 4:46 AM CST 7:19 PM CST
Moon 1:37 AM CST (3/5) 11:19 AM CST (3/5)
Length of Visible Light 12h 22m
Length of Day
11h 26m
Last Quarter, 40% of the Moon is Illuminated
Mar 5
Last Quarter
Mar 11
New
Mar 19
First Quarter
Mar 27
Full
Apr 2
Last Quarter

Hourly Weather History & Observations

Time (CST) Temp. Windchill Dew Point Humidity Pressure Visibility Wind Dir Wind Speed Gust Speed Precip Events Conditions
1:52 AM 32.0 °F 23.6 °F 26.1 °F 79% 30.01 in 10.0 mi ENE 10.4 mph - N/A   Overcast
2:52 AM 32.0 °F 23.0 °F 25.0 °F 75% 29.99 in 10.0 mi ENE 11.5 mph - N/A   Overcast
3:44 AM 32.0 °F 22.5 °F 26.6 °F 80% 29.94 in 10.0 mi ENE 12.7 mph - N/A   Overcast
3:52 AM 32.0 °F 23.0 °F 26.1 °F 79% 29.98 in 10.0 mi ENE 11.5 mph - N/A   Overcast
4:09 AM 33.8 °F 25.8 °F 26.6 °F 75% 29.94 in 10.0 mi East 10.4 mph - N/A   Overcast
4:22 AM 33.8 °F 26.4 °F 26.6 °F 75% 29.93 in 10.0 mi East 9.2 mph - N/A   Overcast
4:52 AM 33.1 °F 24.9 °F 26.1 °F 75% 29.96 in 10.0 mi East 10.4 mph - N/A   Overcast
5:52 AM 33.1 °F 23.9 °F 26.1 °F 75% 29.95 in 10.0 mi East 12.7 mph - N/A   Overcast
6:52 AM 32.0 °F 22.5 °F 25.0 °F 75% 29.94 in 9.0 mi East 12.7 mph 19.6 mph N/A   Overcast
7:52 AM 33.1 °F 24.9 °F 25.0 °F 72% 29.94 in 9.0 mi East 10.4 mph - N/A   Overcast
8:15 AM 30.2 °F 20.2 °F 26.6 °F 86% 29.90 in 1.8 mi East 12.7 mph - 0.00 in Snow Light Snow
8:31 AM 30.2 °F 20.8 °F 26.6 °F 86% 29.90 in 0.5 mi East 11.5 mph - 0.00 in Fog , Snow Light Snow
8:39 AM 30.2 °F 20.8 °F 28.4 °F 93% 29.91 in 0.2 mi East 11.5 mph 16.1 mph 0.00 in Fog , Snow Snow
8:48 AM 30.2 °F 21.3 °F 28.4 °F 93% 29.91 in 0.5 mi East 10.4 mph - 0.00 in Fog , Snow Light Snow
8:52 AM 30.0 °F 21.7 °F 28.9 °F 96% 29.94 in 0.5 mi East 9.2 mph - 0.00 in Fog , Snow Snow
9:07 AM 30.2 °F 21.9 °F 28.4 °F 93% 29.91 in 0.5 mi East 9.2 mph - 0.00 in Fog , Snow Snow
9:35 AM 30.2 °F 22.6 °F 28.4 °F 93% 29.90 in 0.5 mi East 8.1 mph - 0.00 in Fog , Snow Snow
9:52 AM 30.0 °F 21.1 °F 28.9 °F 96% 29.94 in 0.5 mi East 10.4 mph - 0.00 in Fog , Snow Snow
10:06 AM 30.2 °F 21.3 °F 28.4 °F 93% 29.89 in 0.2 mi East 10.4 mph - 0.00 in Fog , Snow Snow
10:25 AM 30.2 °F 20.8 °F 28.4 °F 93% 29.88 in 0.5 mi ENE 11.5 mph - 0.00 in Fog , Snow Light Snow
10:52 AM 30.0 °F 19.1 °F 28.0 °F 92% 29.91 in 0.5 mi ENE 15.0 mph - 0.00 in Fog , Snow Snow
11:20 AM 30.2 °F 18.5 °F 28.4 °F 93% 29.85 in 0.2 mi ENE 17.3 mph - 0.00 in Fog , Snow Heavy Snow
11:45 AM 30.2 °F 19.8 °F 28.4 °F 93% 29.85 in 0.5 mi NE 13.8 mph - 0.00 in Fog , Snow Snow
11:52 AM 30.0 °F 19.1 °F 28.9 °F 96% 29.88 in 0.2 mi ENE 15.0 mph - 0.00 in Fog , Snow Snow
12:52 PM 28.9 °F 17.7 °F 28.0 °F 96% 29.87 in 0.2 mi ENE 15.0 mph 21.9 mph 0.00 in Fog , Snow Snow
1:52 PM 28.9 °F 18.2 °F 28.0 °F 96% 29.87 in 0.2 mi NE 13.8 mph - 0.00 in Fog , Snow Light Snow
1:59 PM 28.4 °F 16.2 °F 26.6 °F 93% 29.83 in 0.5 mi NE 17.3 mph 21.9 mph 0.00 in Fog , Snow Snow
2:07 PM 28.4 °F 17.5 °F 28.4 °F 100% 29.83 in 0.2 mi ENE 13.8 mph - 0.00 in Fog , Snow Snow
2:44 PM 28.4 °F 17.5 °F 26.6 °F 93% 29.83 in 0.2 mi NE 13.8 mph 21.9 mph 0.00 in Fog , Snow Snow
2:52 PM 28.9 °F 17.7 °F 27.0 °F 92% 29.86 in 0.2 mi NE 15.0 mph 23.0 mph 0.00 in Fog , Snow Snow
3:16 PM 28.4 °F 17.0 °F 26.6 °F 93% 29.83 in 0.2 mi NE 15.0 mph 21.9 mph 0.00 in Fog , Snow Snow
3:24 PM 28.4 °F 17.5 °F 26.6 °F 93% 29.83 in 0.5 mi NE 13.8 mph 20.7 mph 0.00 in Fog , Snow Snow
3:27 PM 28.4 °F 17.5 °F 26.6 °F 93% 29.83 in 0.2 mi NE 13.8 mph 19.6 mph 0.00 in Fog , Snow Snow
3:52 PM 28.0 °F 17.5 °F 27.0 °F 96% 29.88 in 0.5 mi NE 12.7 mph 21.9 mph 0.00 in Fog , Snow Snow
4:23 PM 28.4 °F 19.1 °F 26.6 °F 93% 29.84 in 0.2 mi NNE 10.4 mph 20.7 mph 0.00 in Fog , Snow Snow
4:29 PM 28.4 °F 18.5 °F 26.6 °F 93% 29.84 in 0.5 mi NNE 11.5 mph 19.6 mph 0.00 in Fog , Snow Snow
4:52 PM 28.9 °F 17.7 °F 27.0 °F 92% 29.89 in 0.5 mi NNE 15.0 mph 21.9 mph 0.00 in Fog , Snow Light Snow
5:05 PM 28.4 °F 17.0 °F 26.6 °F 93% 29.85 in 1.8 mi NNE 15.0 mph 23.0 mph 0.00 in Snow Light Snow
5:52 PM 30.0 °F 20.0 °F 27.0 °F 88% 29.91 in 1.5 mi North 12.7 mph 21.9 mph 0.00 in Snow Light Snow
6:52 PM 30.0 °F 20.0 °F 28.0 °F 92% 29.93 in 1.2 mi North 12.7 mph 25.3 mph 0.00 in Snow Light Snow
7:52 PM 30.9 °F 19.4 °F 28.9 °F 92% 29.93 in 3.0 mi North 17.3 mph 26.5 mph 0.00 in Snow Light Snow
8:09 PM 30.2 °F 20.2 °F 28.4 °F 93% 29.90 in 6.0 mi North 12.7 mph 27.6 mph 0.00 in Rain Light Freezing Rain
8:20 PM 30.2 °F 19.8 °F 28.4 °F 93% 29.90 in 8.0 mi North 13.8 mph 25.3 mph 0.00 in Rain Light Freezing Rain
8:43 PM 30.2 °F 19.8 °F 28.4 °F 93% 29.91 in 10.0 mi North 13.8 mph 21.9 mph 0.00 in   Overcast
8:52 PM 30.9 °F 21.2 °F 28.0 °F 89% 29.96 in 6.0 mi NNW 12.7 mph 21.9 mph 0.00 in Snow Light Snow
9:52 PM 30.0 °F 21.1 °F 27.0 °F 88% 29.98 in 9.0 mi NNW 10.4 mph 18.4 mph 0.00 in   Overcast
10:52 PM 30.9 °F 23.5 °F 27.0 °F 85% 29.99 in 10.0 mi NNW 8.1 mph - N/A   Overcast
11:22 PM 30.2 °F 23.4 °F 28.4 °F 93% 29.96 in 10.0 mi NNW 6.9 mph - N/A   Overcast
11:52 PM 32.0 °F 24.2 °F 28.0 °F 85% 30.01 in 10.0 mi North 9.2 mph 20.7 mph N/A   Overcast